Time,TemperatureF,DewpointF,PressureIn,WindDirection,WindDirectionDegrees,WindSpeedMPH,WindSpeedGustMPH,Humidity,HourlyPrecipIn,Conditions,Clouds,dailyrainin,SoftwareType,DateUTC
2013-06-21 00:01:00,62.1,54.5,29.44,East,90,0.7,0.9,76,0.00,,,0.00,WUHU216HW,2013-06-21 07:01:00,
2013-06-21 00:06:00,61.9,54.3,29.44,ENE,68,1.1,1.1,76,0.00,,,0.00,WUHU216HW,2013-06-21 07:06:00,
2013-06-21 00:11:00,61.9,54.3,29.44,East,90,0.7,1.1,76,0.00,,,0.00,WUHU216HW,2013-06-21 07:11:00,
2013-06-21 00:16:00,61.9,54.3,29.44,East,90,0.7,1.1,76,0.00,,,0.00,WUHU216HW,2013-06-21 07:16:00,
2013-06-21 00:21:00,61.7,54.1,29.44,East,90,1.3,1.3,76,0.00,,,0.00,WUHU216HW,2013-06-21 07:21:00,
2013-06-21 00:26:00,61.6,53.9,29.44,ESE,113,1.1,1.3,76,0.00,,,0.00,WUHU216HW,2013-06-21 07:26:00,
2013-06-21 00:31:00,61.2,53.7,29.44,ENE,68,1.1,1.3,76,0.00,,,0.00,WUHU216HW,2013-06-21 07:31:00,
2013-06-21 00:36:00,61.2,53.7,29.44,ENE,68,1.1,1.8,76,0.00,,,0.00,WUHU216HW,2013-06-21 07:36:00,
2013-06-21 00:41:00,61.2,53.7,29.44,ENE,68,0.4,1.8,76,0.00,,,0.00,WUHU216HW,2013-06-21 07:41:00,
2013-06-21 00:46:00,61.0,53.5,29.43,East,90,0.7,1.1,76,0.00,,,0.00,WUHU216HW,2013-06-21 07:46:00,
2013-06-21 00:51:00,60.8,53.3,29.43,NE,45,0.0,0.7,76,0.00,,,0.00,WUHU216HW,2013-06-21 07:51:00,
2013-06-21 00:56:00,60.8,53.3,29.44,ENE,68,0.9,0.9,76,0.00,,,0.00,WUHU216HW,2013-06-21 07:56:00,
2013-06-21 01:01:00,60.7,53.5,29.44,East,90,1.1,1.3,77,0.00,,,0.00,WUHU216HW,2013-06-21 08:01:00,
2013-06-21 01:06:00,60.7,53.5,29.44,ESE,113,1.1,1.3,77,0.00,,,0.00,WUHU216HW,2013-06-21 08:06:00,
2013-06-21 01:11:00,60.5,53.3,29.44,East,90,0.7,1.1,77,0.00,,,0.00,WUHU216HW,2013-06-21 08:11:00,
2013-06-21 01:16:00,60.5,53.3,29.44,East,90,1.8,1.8,77,0.00,,,0.00,WUHU216HW,2013-06-21 08:16:00,
2013-06-21 01:21:00,60.7,53.8,29.44,East,90,0.7,1.8,78,0.00,,,0.00,WUHU216HW,2013-06-21 08:21:00,
2013-06-21 01:26:00,60.8,53.6,29.44,ENE,68,0.9,1.8,77,0.00,,,0.00,WUHU216HW,2013-06-21 08:26:00,
2013-06-21 01:31:00,60.7,53.5,29.44,NE,45,0.2,1.1,77,0.00,,,0.00,WUHU216HW,2013-06-21 08:31:00,
2013-06-21 01:36:00,60.8,53.6,29.44,NE,45,0.0,1.1,77,0.00,,,0.00,WUHU216HW,2013-06-21 08:36:00,
2013-06-21 01:41:00,60.5,52.9,29.44,East,90,0.0,1.1,76,0.00,,,0.00,WUHU216HW,2013-06-21 08:41:00,
2013-06-21 01:46:00,60.3,52.7,29.44,East,90,0.0,1.1,76,0.00,,,0.00,WUHU216HW,2013-06-21 08:46:00,
2013-06-21 01:51:00,60.1,52.6,29.43,ENE,68,0.4,1.1,76,0.00,,,0.00,WUHU216HW,2013-06-21 08:51:00,
2013-06-21 01:56:00,60.1,52.6,29.44,ENE,68,0.0,1.1,76,0.00,,,0.00,WUHU216HW,2013-06-21 08:56:00,
2013-06-21 02:01:00,59.9,52.4,29.43,ENE,68,0.7,0.7,76,0.00,,,0.00,WUHU216HW,2013-06-21 09:01:00,
2013-06-21 02:06:00,59.8,52.2,29.43,ENE,68,0.7,1.1,76,0.00,,,0.00,WUHU216HW,2013-06-21 09:06:00,
2013-06-21 02:11:00,59.6,52.0,29.43,ENE,68,0.4,1.1,76,0.00,,,0.00,WUHU216HW,2013-06-21 09:11:00,
2013-06-21 02:16:00,59.4,51.8,29.43,East,90,0.4,1.1,76,0.00,,,0.00,WUHU216HW,2013-06-21 09:16:00,
2013-06-21 02:21:00,59.4,51.8,29.43,ENE,68,0.0,0.7,76,0.00,,,0.00,WUHU216HW,2013-06-21 09:21:00,
2013-06-21 02:26:00,59.4,51.8,29.43,ENE,68,0.0,0.4,76,0.00,,,0.00,WUHU216HW,2013-06-21 09:26:00,
2013-06-21 02:31:00,59.2,51.7,29.43,ENE,68,0.0,0.0,76,0.00,,,0.00,WUHU216HW,2013-06-21 09:31:00,
2013-06-21 02:36:00,59.2,52.0,29.43,ENE,68,0.0,0.0,77,0.00,,,0.00,WUHU216HW,2013-06-21 09:36:00,
2013-06-21 02:41:00,59.0,51.8,29.43,ENE,68,0.0,0.0,77,0.00,,,0.00,WUHU216HW,2013-06-21 09:41:00,
2013-06-21 02:46:00,59.0,51.5,29.43,East,90,0.0,0.7,76,0.00,,,0.00,WUHU216HW,2013-06-21 09:46:00,
2013-06-21 02:51:00,59.0,51.5,29.44,ENE,68,0.4,0.7,76,0.00,,,0.00,WUHU216HW,2013-06-21 09:51:00,
2013-06-21 02:56:00,58.9,51.3,29.44,NNE,23,1.3,1.3,76,0.00,,,0.00,WUHU216HW,2013-06-21 09:56:00,
2013-06-21 03:01:00,58.7,51.1,29.44,NE,45,0.4,1.3,76,0.00,,,0.00,WUHU216HW,2013-06-21 10:01:00,
2013-06-21 03:06:00,58.5,50.9,29.44,NE,45,0.9,1.3,76,0.00,,,0.00,WUHU216HW,2013-06-21 10:06:00,
2013-06-21 03:11:00,58.3,50.8,29.44,ENE,68,0.2,0.9,76,0.00,,,0.00,WUHU216HW,2013-06-21 10:11:00,
2013-06-21 03:16:00,58.3,50.8,29.44,ENE,68,0.9,0.9,76,0.00,,,0.00,WUHU216HW,2013-06-21 10:16:00,
2013-06-21 03:21:00,58.0,50.8,29.44,NE,45,1.3,1.3,77,0.00,,,0.00,WUHU216HW,2013-06-21 10:21:00,
2013-06-21 03:26:00,57.8,50.6,29.44,NE,45,0.4,1.8,77,0.00,,,0.00,WUHU216HW,2013-06-21 10:26:00,
2013-06-21 03:31:00,57.8,50.6,29.44,NE,45,1.1,1.8,77,0.00,,,0.00,WUHU216HW,2013-06-21 10:31:00,
2013-06-21 03:36:00,57.8,50.6,29.44,East,90,0.2,1.6,77,0.00,,,0.00,WUHU216HW,2013-06-21 10:36:00,
2013-06-21 03:41:00,57.6,50.4,29.44,ENE,68,0.9,1.1,77,0.00,,,0.00,WUHU216HW,2013-06-21 10:41:00,
2013-06-21 03:46:00,57.6,50.4,29.44,NE,45,0.0,1.3,77,0.00,,,0.00,WUHU216HW,2013-06-21 10:46:00,
2013-06-21 03:51:00,57.6,50.4,29.44,NE,45,0.9,1.3,77,0.00,,,0.00,WUHU216HW,2013-06-21 10:51:00,
2013-06-21 03:56:00,57.6,50.4,29.44,NE,45,0.0,0.9,77,0.00,,,0.00,WUHU216HW,2013-06-21 10:56:00,
2013-06-21 04:01:00,57.8,50.6,29.44,ENE,68,0.4,0.9,77,0.00,,,0.00,WUHU216HW,2013-06-21 11:01:00,
2013-06-21 04:06:00,57.6,50.4,29.44,NE,45,0.0,0.9,77,0.00,,,0.00,WUHU216HW,2013-06-21 11:06:00,
2013-06-21 04:11:00,57.4,50.2,29.44,NE,45,0.0,0.4,77,0.00,,,0.00,WUHU216HW,2013-06-21 11:11:00,
2013-06-21 04:16:00,57.4,50.2,29.44,ENE,68,0.7,0.7,77,0.00,,,0.00,WUHU216HW,2013-06-21 11:16:00,
2013-06-21 04:21:00,57.2,50.0,29.44,ENE,68,0.2,0.7,77,0.00,,,0.00,WUHU216HW,2013-06-21 11:21:00,
2013-06-21 04:26:00,57.1,49.9,29.44,ENE,68,0.0,0.7,77,0.00,,,0.00,WUHU216HW,2013-06-21 11:26:00,
2013-06-21 04:31:00,56.9,49.7,29.44,ENE,68,0.0,0.4,77,0.00,,,0.00,WUHU216HW,2013-06-21 11:31:00,
2013-06-21 04:36:00,56.9,50.0,29.44,ENE,68,0.7,0.7,78,0.00,,,0.00,WUHU216HW,2013-06-21 11:36:00,
2013-06-21 04:41:00,56.7,49.9,29.44,ENE,68,0.4,0.7,78,0.00,,,0.00,WUHU216HW,2013-06-21 11:41:00,
2013-06-21 04:48:00,56.7,49.9,29.44,NE,45,0.0,1.3,78,0.00,,,0.00,WUHU216HW,2013-06-21 11:48:00,
2013-06-21 04:53:00,56.7,49.9,29.44,NE,45,0.0,1.3,78,0.00,,,0.00,WUHU216HW,2013-06-21 11:53:00,
2013-06-21 04:58:00,56.5,49.7,29.44,NE,45,0.0,0.0,78,0.00,,,0.00,WUHU216HW,2013-06-21 11:58:00,
2013-06-21 05:03:00,56.5,50.0,29.44,NE,45,0.0,0.0,79,0.00,,,0.00,WUHU216HW,2013-06-21 12:03:00,
2013-06-21 05:08:00,56.5,50.0,29.44,NE,45,0.0,0.0,79,0.00,,,0.00,WUHU216HW,2013-06-21 12:08:00,
2013-06-21 05:13:00,56.5,50.0,29.44,NE,45,0.4,0.4,79,0.00,,,0.00,WUHU216HW,2013-06-21 12:13:00,
2013-06-21 05:18:00,56.5,50.0,29.44,NNE,23,0.4,0.9,79,0.00,,,0.00,WUHU216HW,2013-06-21 12:18:00,
2013-06-21 05:23:00,56.5,49.7,29.44,NNE,23,0.0,0.9,78,0.00,,,0.00,WUHU216HW,2013-06-21 12:23:00,
2013-06-21 05:28:00,56.5,49.7,29.44,NNE,23,0.0,0.4,78,0.00,,,0.00,WUHU216HW,2013-06-21 12:28:00,
2013-06-21 05:33:00,56.3,49.9,29.44,NE,45,0.0,1.1,79,0.00,,,0.00,WUHU216HW,2013-06-21 12:33:00,
2013-06-21 05:38:00,56.3,49.9,29.44,NE,45,0.0,1.1,79,0.00,,,0.00,WUHU216HW,2013-06-21 12:38:00,
2013-06-21 05:43:00,56.3,49.9,29.45,NE,45,0.0,0.0,79,0.00,,,0.00,WUHU216HW,2013-06-21 12:43:00,
2013-06-21 05:48:00,56.2,49.7,29.45,NE,45,0.0,0.0,79,0.00,,,0.00,WUHU216HW,2013-06-21 12:48:00,
2013-06-21 05:53:00,56.2,49.7,29.45,NE,45,0.0,0.0,79,0.00,,,0.00,WUHU216HW,2013-06-21 12:53:00,
2013-06-21 05:58:00,56.2,49.7,29.45,NE,45,0.0,0.0,79,0.00,,,0.00,WUHU216HW,2013-06-21 12:58:00,
2013-06-21 06:03:00,56.2,49.7,29.46,NE,45,0.0,0.0,79,0.00,,,0.00,WUHU216HW,2013-06-21 13:03:00,
2013-06-21 06:08:00,56.2,49.7,29.46,NE,45,0.0,0.0,79,0.00,,,0.00,WUHU216HW,2013-06-21 13:08:00,
2013-06-21 06:13:00,56.2,49.7,29.46,NNE,23,0.4,0.4,79,0.00,,,0.00,WUHU216HW,2013-06-21 13:13:00,
2013-06-21 06:18:00,56.3,49.9,29.46,NNE,23,0.0,0.4,79,0.00,,,0.00,WUHU216HW,2013-06-21 13:18:00,
2013-06-21 06:23:00,56.5,50.4,29.47,NE,45,0.0,0.4,80,0.00,,,0.00,WUHU216HW,2013-06-21 13:23:00,
2013-06-21 06:28:00,56.9,50.8,29.47,NE,45,0.0,0.0,80,0.00,,,0.00,WUHU216HW,2013-06-21 13:28:00,
2013-06-21 06:33:00,57.4,51.3,29.47,NE,45,0.0,0.0,80,0.00,,,0.00,WUHU216HW,2013-06-21 13:33:00,
2013-06-21 06:38:00,57.4,50.9,29.47,NE,45,0.0,0.0,79,0.00,,,0.00,WUHU216HW,2013-06-21 13:38:00,
2013-06-21 06:43:00,58.0,51.5,29.47,NE,45,0.0,0.0,79,0.00,,,0.00,WUHU216HW,2013-06-21 13:43:00,
2013-06-21 06:48:00,58.3,51.8,29.47,NE,45,0.0,0.0,79,0.00,,,0.00,WUHU216HW,2013-06-21 13:48:00,
2013-06-21 06:53:00,58.9,52.4,29.47,East,90,0.0,0.0,79,0.00,,,0.00,WUHU216HW,2013-06-21 13:53:00,
2013-06-21 06:58:00,59.0,52.6,29.47,ESE,113,0.0,0.0,79,0.00,,,0.00,WUHU216HW,2013-06-21 13:58:00,
2013-06-21 07:03:00,59.8,53.6,29.47,South,180,0.7,1.1,80,0.00,,,0.00,WUHU216HW,2013-06-21 14:03:00,
2013-06-21 07:08:00,60.1,54.4,29.47,South,180,0.7,1.1,81,0.00,,,0.00,WUHU216HW,2013-06-21 14:08:00,
2013-06-21 07:13:00,60.3,54.6,29.48,South,180,1.1,1.1,81,0.00,,,0.00,WUHU216HW,2013-06-21 14:13:00,
2013-06-21 07:18:00,60.8,55.1,29.48,SSW,203,0.9,2.5,81,0.00,,,0.00,WUHU216HW,2013-06-21 14:18:00,
2013-06-21 07:23:00,61.4,55.2,29.48,SSW,203,1.6,2.7,80,0.00,,,0.00,WUHU216HW,2013-06-21 14:23:00,
2013-06-21 07:28:00,61.6,55.4,29.48,SSW,203,1.3,2.7,80,0.00,,,0.00,WUHU216HW,2013-06-21 14:28:00,
2013-06-21 07:33:00,61.9,55.4,29.48,SSW,203,0.7,1.6,79,0.00,,,0.00,WUHU216HW,2013-06-21 14:33:00,
2013-06-21 07:38:00,62.5,55.4,29.48,SSW,203,0.4,3.1,78,0.00,,,0.00,WUHU216HW,2013-06-21 14:38:00,
2013-06-21 07:43:00,62.6,56.0,29.48,SSW,203,0.0,3.1,79,0.00,,,0.00,WUHU216HW,2013-06-21 14:43:00,
2013-06-21 07:48:00,63.0,56.0,29.47,SW,225,1.1,1.1,78,0.00,,,0.00,WUHU216HW,2013-06-21 14:48:00,
2013-06-21 07:53:00,63.4,55.6,29.47,SW,225,0.2,1.1,76,0.00,,,0.00,WUHU216HW,2013-06-21 14:53:00,
2013-06-21 07:58:00,63.5,56.2,29.48,SSW,203,0.4,1.3,77,0.00,,,0.00,WUHU216HW,2013-06-21 14:58:00,
2013-06-21 08:03:00,63.7,56.3,29.48,SW,225,0.4,1.3,77,0.00,,,0.00,WUHU216HW,2013-06-21 15:03:00,
2013-06-21 08:08:00,63.9,56.2,29.48,SW,225,1.1,1.3,76,0.00,,,0.00,WUHU216HW,2013-06-21 15:08:00,
2013-06-21 08:13:00,64.3,56.5,29.48,SW,225,0.9,2.0,76,0.00,,,0.00,WUHU216HW,2013-06-21 15:13:00,
2013-06-21 08:18:00,64.8,56.7,29.48,SE,135,0.7,2.0,75,0.00,,,0.00,WUHU216HW,2013-06-21 15:18:00,
2013-06-21 08:23:00,65.2,55.9,29.48,WSW,248,1.8,1.8,72,0.00,,,0.00,WUHU216HW,2013-06-21 15:23:00,
2013-06-21 08:28:00,65.3,56.8,29.48,SSW,203,0.4,1.8,74,0.00,,,0.00,WUHU216HW,2013-06-21 15:28:00,
2013-06-21 08:33:00,65.9,57.3,29.49,SE,135,0.0,1.8,74,0.00,,,0.00,WUHU216HW,2013-06-21 15:33:00,
2013-06-21 08:38:00,66.2,56.9,29.49,WSW,248,0.4,1.6,72,0.00,,,0.00,WUHU216HW,2013-06-21 15:38:00,
2013-06-21 08:43:00,66.6,57.7,29.49,South,180,0.2,2.5,73,0.00,,,0.00,WUHU216HW,2013-06-21 15:43:00,
2013-06-21 08:48:00,67.3,58.4,29.49,WSW,248,2.0,3.4,73,0.00,,,0.00,WUHU216HW,2013-06-21 15:48:00,
2013-06-21 08:53:00,67.7,58.8,29.49,SE,135,2.7,3.4,73,0.00,,,0.00,WUHU216HW,2013-06-21 15:53:00,
2013-06-21 08:58:00,68.6,58.4,29.49,WSW,248,2.0,3.8,70,0.00,,,0.00,WUHU216HW,2013-06-21 15:58:00,
2013-06-21 09:03:00,68.9,58.8,29.49,SW,225,1.3,3.8,70,0.00,,,0.00,WUHU216HW,2013-06-21 16:03:00,
2013-06-21 09:08:00,68.8,58.1,29.49,NW,315,0.4,2.0,69,0.00,,,0.00,WUHU216HW,2013-06-21 16:08:00,
2013-06-21 09:13:00,68.8,58.6,29.50,SW,225,2.0,2.5,70,0.00,,,0.00,WUHU216HW,2013-06-21 16:13:00,
2013-06-21 09:18:00,69.1,58.5,29.50,West,270,1.3,2.5,69,0.00,,,0.00,WUHU216HW,2013-06-21 16:18:00,
2013-06-21 09:23:00,69.1,58.1,29.50,West,270,2.2,2.7,68,0.00,,,0.00,WUHU216HW,2013-06-21 16:23:00,
2013-06-21 09:28:00,68.9,58.3,29.50,SW,225,1.8,2.7,69,0.00,,,0.00,WUHU216HW,2013-06-21 16:28:00,
2013-06-21 09:33:00,68.8,58.1,29.50,SW,225,3.6,4.0,69,0.00,,,0.00,WUHU216HW,2013-06-21 16:33:00,
2013-06-21 09:38:00,69.1,59.0,29.50,SW,225,1.1,4.0,70,0.00,,,0.00,WUHU216HW,2013-06-21 16:38:00,
2013-06-21 09:43:00,69.3,58.7,29.50,SW,225,3.1,3.6,69,0.00,,,0.00,WUHU216HW,2013-06-21 16:43:00,
2013-06-21 09:48:00,69.1,58.5,29.50,West,270,0.7,4.0,69,0.00,,,0.00,WUHU216HW,2013-06-21 16:48:00,
2013-06-21 09:53:00,69.5,58.9,29.51,WSW,248,4.7,4.7,69,0.00,,,0.00,WUHU216HW,2013-06-21 16:53:00,
2013-06-21 09:58:00,69.5,58.9,29.51,West,270,1.8,5.8,69,0.00,,,0.00,WUHU216HW,2013-06-21 16:58:00,
2013-06-21 10:03:00,69.5,58.9,29.51,SW,225,1.8,5.8,69,0.00,,,0.00,WUHU216HW,2013-06-21 17:03:00,
2013-06-21 10:10:00,69.5,58.9,29.51,SW,225,0.4,3.1,69,0.00,,,0.00,WUHU216HW,2013-06-21 17:10:00,
2013-06-21 10:15:00,69.8,59.1,29.51,NW,315,0.7,3.1,69,0.00,,,0.00,WUHU216HW,2013-06-21 17:15:00,
2013-06-21 10:20:00,70.0,59.0,29.51,SW,225,2.5,2.5,68,0.00,,,0.00,WUHU216HW,2013-06-21 17:20:00,
2013-06-21 10:25:00,70.4,59.3,29.51,WSW,248,2.5,5.8,68,0.00,,,0.00,WUHU216HW,2013-06-21 17:25:00,
2013-06-21 10:30:00,70.4,58.9,29.50,West,270,1.3,5.8,67,0.00,,,0.00,WUHU216HW,2013-06-21 17:30:00,
2013-06-21 10:35:00,70.2,58.7,29.50,WSW,248,1.8,2.5,67,0.00,,,0.00,WUHU216HW,2013-06-21 17:35:00,
2013-06-21 10:41:00,70.0,59.0,29.50,SW,225,1.8,5.8,68,0.00,,,0.00,WUHU216HW,2013-06-21 17:41:00,
2013-06-21 10:46:00,69.8,58.8,29.51,West,270,0.9,5.8,68,0.00,,,0.00,WUHU216HW,2013-06-21 17:46:00,
2013-06-21 10:47:00,69.8,58.8,29.51,WSW,248,2.7,5.8,68,0.00,,,0.00,WUHU216HW,2013-06-21 17:47:00,
2013-06-21 10:52:00,69.8,59.1,29.51,SW,225,1.8,4.3,69,0.00,,,0.00,WUHU216HW,2013-06-21 17:52:00,
2013-06-21 10:57:00,70.0,59.0,29.51,SW,225,2.0,4.3,68,0.00,,,0.00,WUHU216HW,2013-06-21 17:57:00,
2013-06-21 11:02:00,70.2,59.1,29.51,SSW,203,2.5,3.8,68,0.00,,,0.00,WUHU216HW,2013-06-21 18:02:00,
2013-06-21 11:07:00,70.2,58.7,29.51,NNW,338,1.8,4.0,67,0.00,,,0.00,WUHU216HW,2013-06-21 18:07:00,
2013-06-21 11:13:00,70.2,58.7,29.51,NW,315,1.1,4.5,67,0.00,,,0.00,WUHU216HW,2013-06-21 18:13:00,
2013-06-21 11:18:00,69.8,58.8,29.52,WNW,293,1.1,4.5,68,0.00,,,0.00,WUHU216HW,2013-06-21 18:18:00,
2013-06-21 11:23:00,70.0,59.0,29.52,West,270,2.0,4.9,68,0.00,,,0.00,WUHU216HW,2013-06-21 18:23:00,
2013-06-21 11:28:00,70.2,59.1,29.51,SW,225,3.1,4.9,68,0.00,,,0.00,WUHU216HW,2013-06-21 18:28:00,
2013-06-21 11:33:00,70.6,59.5,29.51,SW,225,4.7,4.7,68,0.00,,,0.00,WUHU216HW,2013-06-21 18:33:00,
2013-06-21 11:38:00,70.2,59.1,29.52,SW,225,1.6,4.7,68,0.00,,,0.00,WUHU216HW,2013-06-21 18:38:00,
2013-06-21 11:44:00,70.0,59.3,29.52,West,270,1.8,4.7,69,0.00,,,0.00,WUHU216HW,2013-06-21 18:44:00,
2013-06-21 11:45:00,70.0,59.3,29.52,West,270,1.6,4.0,69,0.00,,,0.00,WUHU216HW,2013-06-21 18:45:00,
2013-06-21 11:46:00,70.0,59.3,29.52,SW,225,2.2,3.4,69,0.00,,,0.00,WUHU216HW,2013-06-21 18:46:00,
2013-06-21 11:51:00,70.0,59.3,29.51,West,270,1.8,6.9,69,0.00,,,0.00,WUHU216HW,2013-06-21 18:51:00,
2013-06-21 11:56:00,69.8,59.1,29.51,WSW,248,1.1,6.9,69,0.00,,,0.00,WUHU216HW,2013-06-21 18:56:00,
2013-06-21 12:01:00,69.8,59.6,29.51,SW,225,2.7,4.0,70,0.00,,,0.00,WUHU216HW,2013-06-21 19:01:00,
2013-06-21 12:06:00,69.8,59.9,29.51,WNW,293,2.0,6.3,71,0.00,,,0.00,WUHU216HW,2013-06-21 19:06:00,
2013-06-21 12:11:00,69.8,59.6,29.51,WNW,293,1.6,6.3,70,0.00,,,0.00,WUHU216HW,2013-06-21 19:11:00,
2013-06-21 12:16:00,69.8,59.6,29.51,NW,315,3.1,4.3,70,0.00,,,0.00,WUHU216HW,2013-06-21 19:16:00,
2013-06-21 12:20:00,69.8,59.6,29.51,WNW,293,2.5,4.7,70,0.00,,,0.00,WUHU216HW,2013-06-21 19:20:00,
2013-06-21 12:25:00,69.8,59.6,29.51,SW,225,3.6,4.7,70,0.00,,,0.00,WUHU216HW,2013-06-21 19:25:00,
2013-06-21 12:30:00,70.0,59.8,29.51,SSW,203,2.5,6.3,70,0.00,,,0.00,WUHU216HW,2013-06-21 19:30:00,
2013-06-21 12:35:00,70.2,59.9,29.51,WSW,248,4.3,6.5,70,0.00,,,0.00,WUHU216HW,2013-06-21 19:35:00,
2013-06-21 12:40:00,70.2,59.9,29.51,SW,225,2.9,7.4,70,0.00,,,0.00,WUHU216HW,2013-06-21 19:40:00,
2013-06-21 12:42:00,70.2,59.9,29.51,SW,225,2.5,7.4,70,0.00,,,0.00,WUHU216HW,2013-06-21 19:42:00,
2013-06-21 12:47:00,70.6,60.3,29.51,WNW,293,1.8,3.8,70,0.00,,,0.00,WUHU216HW,2013-06-21 19:47:00,
2013-06-21 12:52:00,70.4,60.1,29.51,WNW,293,1.1,3.4,70,0.00,,,0.00,WUHU216HW,2013-06-21 19:52:00,
2013-06-21 12:57:00,70.2,59.9,29.51,West,270,1.6,2.0,70,0.00,,,0.00,WUHU216HW,2013-06-21 19:57:00,
2013-06-21 13:02:00,70.2,59.9,29.51,SW,225,1.1,3.1,70,0.00,,,0.00,WUHU216HW,2013-06-21 20:02:00,
2013-06-21 13:04:00,70.2,59.9,29.51,SSW,203,1.6,4.7,70,0.00,,,0.00,WUHU216HW,2013-06-21 20:04:00,
2013-06-21 13:10:00,70.0,60.1,29.50,SSW,203,2.5,5.4,71,0.00,,,0.00,WUHU216HW,2013-06-21 20:10:00,
2013-06-21 13:11:00,70.0,60.1,29.50,West,270,1.3,5.4,71,0.00,,,0.00,WUHU216HW,2013-06-21 20:11:00,
2013-06-21 13:13:00,70.0,60.1,29.50,WNW,293,2.5,5.4,71,0.00,,,0.00,WUHU216HW,2013-06-21 20:13:00,
2013-06-21 13:18:00,70.2,59.9,29.50,NW,315,1.8,5.4,70,0.00,,,0.00,WUHU216HW,2013-06-21 20:18:00,
2013-06-21 13:23:00,70.6,60.3,29.50,West,270,1.8,5.4,70,0.00,,,0.00,WUHU216HW,2013-06-21 20:23:00,
2013-06-21 13:28:00,70.6,60.3,29.50,WSW,248,2.0,5.4,70,0.00,,,0.00,WUHU216HW,2013-06-21 20:28:00,
2013-06-21 13:33:00,70.6,60.3,29.50,West,270,1.1,5.4,70,0.00,,,0.00,WUHU216HW,2013-06-21 20:33:00,
2013-06-21 13:38:00,70.6,60.3,29.50,West,270,3.1,4.3,70,0.00,,,0.00,WUHU216HW,2013-06-21 20:38:00,
2013-06-21 13:43:00,70.4,60.1,29.50,West,270,4.9,4.9,70,0.00,,,0.00,WUHU216HW,2013-06-21 20:43:00,
2013-06-21 13:49:00,70.7,60.5,29.50,WSW,248,2.0,4.9,70,0.00,,,0.00,WUHU216HW,2013-06-21 20:49:00,
2013-06-21 13:54:00,70.2,60.3,29.50,SW,225,1.1,3.8,71,0.00,,,0.00,WUHU216HW,2013-06-21 20:54:00,
2013-06-21 13:59:00,70.6,60.3,29.50,SW,225,2.5,3.4,70,0.00,,,0.00,WUHU216HW,2013-06-21 20:59:00,
2013-06-21 14:04:00,70.9,60.7,29.50,WNW,293,1.3,4.0,70,0.00,,,0.00,WUHU216HW,2013-06-21 21:04:00,
2013-06-21 14:09:00,70.9,60.7,29.49,SSW,203,6.3,6.3,70,0.00,,,0.00,WUHU216HW,2013-06-21 21:09:00,
2013-06-21 14:14:00,70.9,59.9,29.49,West,270,1.8,6.3,68,0.00,,,0.00,WUHU216HW,2013-06-21 21:14:00,
2013-06-21 14:19:00,70.6,59.9,29.50,WSW,248,2.5,6.3,69,0.00,,,0.00,WUHU216HW,2013-06-21 21:19:00,
2013-06-21 14:24:00,70.6,59.9,29.49,SSW,203,4.9,5.6,69,0.00,,,0.00,WUHU216HW,2013-06-21 21:24:00,
2013-06-21 14:29:00,70.2,59.5,29.49,SW,225,1.1,5.6,69,0.00,,,0.00,WUHU216HW,2013-06-21 21:29:00,
2013-06-21 14:34:00,70.2,59.1,29.49,SW,225,1.6,3.8,68,0.00,,,0.00,WUHU216HW,2013-06-21 21:34:00,
2013-06-21 14:39:00,70.2,59.5,29.49,WSW,248,4.0,4.0,69,0.00,,,0.00,WUHU216HW,2013-06-21 21:39:00,
2013-06-21 14:44:00,70.4,58.9,29.49,WSW,248,1.8,4.0,67,0.00,,,0.00,WUHU216HW,2013-06-21 21:44:00,
2013-06-21 14:49:00,70.2,58.7,29.49,SW,225,1.3,4.5,67,0.00,,,0.00,WUHU216HW,2013-06-21 21:49:00,
2013-06-21 14:54:00,70.2,58.7,29.49,NW,315,2.9,4.5,67,0.00,,,0.00,WUHU216HW,2013-06-21 21:54:00,
2013-06-21 14:59:00,70.0,58.5,29.49,WSW,248,2.2,4.0,67,0.00,,,0.00,WUHU216HW,2013-06-21 21:59:00,
2013-06-21 15:04:00,70.0,57.2,29.49,WSW,248,2.0,4.0,64,0.00,,,0.00,WUHU216HW,2013-06-21 22:04:00,
2013-06-21 15:09:00,69.8,56.7,29.49,WNW,293,1.3,3.4,63,0.00,,,0.00,WUHU216HW,2013-06-21 22:09:00,
2013-06-21 15:14:00,69.8,55.4,29.49,West,270,1.8,3.8,60,0.00,,,0.00,WUHU216HW,2013-06-21 22:14:00,
2013-06-21 15:19:00,70.2,53.7,29.49,NW,315,1.8,3.8,56,0.00,,,0.00,WUHU216HW,2013-06-21 22:19:00,
2013-06-21 15:24:00,70.0,55.1,29.49,NW,315,0.9,3.6,59,0.00,,,0.00,WUHU216HW,2013-06-21 22:24:00,
2013-06-21 15:29:00,70.4,55.5,29.49,West,270,3.4,3.6,59,0.00,,,0.00,WUHU216HW,2013-06-21 22:29:00,
2013-06-21 15:34:00,70.2,54.7,29.49,West,270,0.7,3.6,58,0.00,,,0.00,WUHU216HW,2013-06-21 22:34:00,
2013-06-21 15:39:00,70.0,55.1,29.49,West,270,2.2,3.4,59,0.00,,,0.00,WUHU216HW,2013-06-21 22:39:00,
2013-06-21 15:44:00,69.8,55.4,29.49,West,270,3.6,3.6,60,0.00,,,0.00,WUHU216HW,2013-06-21 22:44:00,
2013-06-21 15:49:00,70.2,56.2,29.49,WSW,248,1.8,3.6,61,0.00,,,0.00,WUHU216HW,2013-06-21 22:49:00,
2013-06-21 15:54:00,70.0,56.9,29.48,SW,225,2.5,6.0,63,0.00,,,0.00,WUHU216HW,2013-06-21 22:54:00,
2013-06-21 15:59:00,69.8,57.1,29.48,WSW,248,1.1,6.0,64,0.00,,,0.00,WUHU216HW,2013-06-21 22:59:00,
2013-06-21 16:04:00,70.0,57.7,29.48,SW,225,1.1,3.1,65,0.00,,,0.00,WUHU216HW,2013-06-21 23:04:00,
2013-06-21 16:09:00,70.2,58.7,29.48,WNW,293,1.3,3.4,67,0.00,,,0.00,WUHU216HW,2013-06-21 23:09:00,
2013-06-21 16:14:00,70.0,58.5,29.48,WSW,248,4.0,4.0,67,0.00,,,0.00,WUHU216HW,2013-06-21 23:14:00,
2013-06-21 16:19:00,70.0,59.0,29.48,NNW,338,2.0,4.0,68,0.00,,,0.00,WUHU216HW,2013-06-21 23:19:00,
2013-06-21 16:24:00,69.8,58.8,29.48,West,270,3.1,4.0,68,0.00,,,0.00,WUHU216HW,2013-06-21 23:24:00,
2013-06-21 16:29:00,69.8,58.8,29.47,West,270,3.4,4.7,68,0.00,,,0.00,WUHU216HW,2013-06-21 23:29:00,
2013-06-21 16:34:00,70.0,58.5,29.47,SW,225,1.1,4.7,67,0.00,,,0.00,WUHU216HW,2013-06-21 23:34:00,
2013-06-21 16:39:00,70.2,57.9,29.47,SW,225,1.8,4.5,65,0.00,,,0.00,WUHU216HW,2013-06-21 23:39:00,
2013-06-21 16:44:00,70.6,58.2,29.47,WSW,248,3.4,4.7,65,0.00,,,0.00,WUHU216HW,2013-06-21 23:44:00,
2013-06-21 16:49:00,70.6,58.2,29.46,West,270,1.1,4.7,65,0.00,,,0.00,WUHU216HW,2013-06-21 23:49:00,
2013-06-21 16:54:00,70.6,57.8,29.46,SW,225,1.6,4.0,64,0.00,,,0.00,WUHU216HW,2013-06-21 23:54:00,
2013-06-21 16:59:00,70.6,57.8,29.46,WSW,248,2.5,4.7,64,0.00,,,0.00,WUHU216HW,2013-06-21 23:59:00,
2013-06-21 17:04:00,70.6,57.8,29.46,WSW,248,2.5,4.7,64,0.00,,,0.00,WUHU216HW,2013-06-22 00:04:00,
2013-06-21 17:09:00,70.4,58.1,29.46,WSW,248,1.8,3.4,65,0.00,,,0.00,WUHU216HW,2013-06-22 00:09:00,
2013-06-21 17:14:00,70.2,57.9,29.46,SW,225,3.6,5.8,65,0.00,,,0.00,WUHU216HW,2013-06-22 00:14:00,
2013-06-21 17:19:00,70.2,57.9,29.46,NW,315,1.1,5.8,65,0.00,,,0.00,WUHU216HW,2013-06-22 00:19:00,
2013-06-21 17:24:00,69.8,58.0,29.46,WSW,248,5.8,5.8,66,0.00,,,0.00,WUHU216HW,2013-06-22 00:24:00,
2013-06-21 17:29:00,70.0,58.5,29.45,SW,225,2.5,5.8,67,0.00,,,0.00,WUHU216HW,2013-06-22 00:29:00,
2013-06-21 17:34:00,70.0,57.7,29.45,SW,225,2.7,4.9,65,0.00,,,0.00,WUHU216HW,2013-06-22 00:34:00,
2013-06-21 17:39:00,70.0,57.7,29.45,SW,225,3.1,3.4,65,0.00,,,0.00,WUHU216HW,2013-06-22 00:39:00,
2013-06-21 17:44:00,70.0,57.7,29.45,SW,225,3.1,3.4,65,0.00,,,0.00,WUHU216HW,2013-06-22 00:44:00,
2013-06-21 17:49:00,70.2,57.9,29.45,SW,225,2.2,3.4,65,0.00,,,0.00,WUHU216HW,2013-06-22 00:49:00,
2013-06-21 17:54:00,70.2,57.9,29.45,West,270,2.0,3.1,65,0.00,,,0.00,WUHU216HW,2013-06-22 00:54:00,
2013-06-21 17:59:00,69.8,57.5,29.45,WSW,248,1.1,3.4,65,0.00,,,0.00,WUHU216HW,2013-06-22 00:59:00,
2013-06-21 18:04:00,69.5,57.6,29.44,SW,225,2.9,3.6,66,0.00,,,0.00,WUHU216HW,2013-06-22 01:04:00,
2013-06-21 18:09:00,69.5,58.0,29.44,West,270,0.0,4.0,67,0.00,,,0.00,WUHU216HW,2013-06-22 01:09:00,
2013-06-21 18:14:00,69.3,57.0,29.44,WSW,248,2.9,4.0,65,0.00,,,0.00,WUHU216HW,2013-06-22 01:14:00,
2013-06-21 18:19:00,69.5,57.6,29.44,WSW,248,3.8,4.0,66,0.00,,,0.00,WUHU216HW,2013-06-22 01:19:00,
2013-06-21 18:24:00,70.0,58.5,29.44,WSW,248,0.7,4.0,67,0.00,,,0.00,WUHU216HW,2013-06-22 01:24:00,
2013-06-21 18:29:00,70.2,57.9,29.44,WSW,248,0.7,3.8,65,0.00,,,0.00,WUHU216HW,2013-06-22 01:29:00,
2013-06-21 18:34:00,70.4,58.4,29.44,SW,225,2.0,3.4,66,0.00,,,0.00,WUHU216HW,2013-06-22 01:34:00,
2013-06-21 18:39:00,70.2,57.4,29.44,NW,315,0.7,2.2,64,0.00,,,0.00,WUHU216HW,2013-06-22 01:39:00,
2013-06-21 18:44:00,69.8,57.1,29.44,NW,315,0.0,2.0,64,0.00,,,0.00,WUHU216HW,2013-06-22 01:44:00,
2013-06-21 18:49:00,69.7,57.3,29.44,SSW,203,1.1,2.0,65,0.00,,,0.00,WUHU216HW,2013-06-22 01:49:00,
2013-06-21 18:55:00,69.8,57.1,29.45,West,270,0.4,1.3,64,0.00,,,0.00,WUHU216HW,2013-06-22 01:55:00,
2013-06-21 19:00:00,69.7,57.3,29.44,SSW,203,1.6,1.8,65,0.00,,,0.00,WUHU216HW,2013-06-22 02:00:00,
2013-06-21 19:05:00,70.0,57.2,29.44,SE,135,1.3,2.2,64,0.00,,,0.00,WUHU216HW,2013-06-22 02:05:00,
2013-06-21 19:06:00,70.2,57.4,29.44,WSW,248,0.4,2.2,64,0.00,,,0.00,WUHU216HW,2013-06-22 02:06:00,
2013-06-21 19:17:00,70.0,56.0,29.44,WSW,248,1.8,2.0,61,0.00,,,0.00,WUHU216HW,2013-06-22 02:17:00,
2013-06-21 19:22:00,69.7,56.1,29.44,WSW,248,1.3,2.0,62,0.00,,,0.00,WUHU216HW,2013-06-22 02:22:00,
2013-06-21 19:27:00,69.5,55.9,29.44,SW,225,1.8,2.5,62,0.00,,,0.00,WUHU216HW,2013-06-22 02:27:00,
2013-06-21 19:32:00,69.5,56.8,29.44,SW,225,1.6,2.5,64,0.00,,,0.00,WUHU216HW,2013-06-22 02:32:00,
2013-06-21 19:37:00,69.1,56.4,29.44,SW,225,1.1,2.5,64,0.00,,,0.00,WUHU216HW,2013-06-22 02:37:00,
2013-06-21 19:42:00,68.8,56.1,29.44,WSW,248,0.4,2.2,64,0.00,,,0.00,WUHU216HW,2013-06-22 02:42:00,
2013-06-21 19:47:00,68.4,56.2,29.44,SW,225,1.6,1.6,65,0.00,,,0.00,WUHU216HW,2013-06-22 02:47:00,
2013-06-21 19:52:00,68.0,55.8,29.44,SW,225,0.2,1.6,65,0.00,,,0.00,WUHU216HW,2013-06-22 02:52:00,
2013-06-21 19:57:00,67.9,55.6,29.44,SW,225,0.0,1.6,65,0.00,,,0.00,WUHU216HW,2013-06-22 02:57:00,
2013-06-21 20:02:00,67.7,55.4,29.44,SW,225,0.0,0.2,65,0.00,,,0.00,WUHU216HW,2013-06-22 03:02:00,
2013-06-21 20:07:00,67.5,55.3,29.44,SW,225,0.0,0.7,65,0.00,,,0.00,WUHU216HW,2013-06-22 03:07:00,
2013-06-21 20:12:00,67.1,55.4,29.44,SW,225,0.0,0.7,66,0.00,,,0.00,WUHU216HW,2013-06-22 03:12:00,
2013-06-21 20:17:00,67.0,55.2,29.44,WSW,248,0.0,0.0,66,0.00,,,0.00,WUHU216HW,2013-06-22 03:17:00,
2013-06-21 20:22:00,67.0,55.6,29.44,SW,225,1.3,1.3,67,0.00,,,0.00,WUHU216HW,2013-06-22 03:22:00,
2013-06-21 20:27:00,66.8,55.4,29.45,SW,225,1.1,1.8,67,0.00,,,0.00,WUHU216HW,2013-06-22 03:27:00,
2013-06-21 20:32:00,66.6,55.7,29.45,WSW,248,2.0,2.7,68,0.00,,,0.00,WUHU216HW,2013-06-22 03:32:00,
2013-06-21 20:37:00,66.1,55.6,29.45,WSW,248,0.4,2.7,69,0.00,,,0.00,WUHU216HW,2013-06-22 03:37:00,
2013-06-21 20:42:00,65.7,55.7,29.45,WSW,248,0.4,2.0,70,0.00,,,0.00,WUHU216HW,2013-06-22 03:42:00,
2013-06-21 20:47:00,65.3,55.4,29.45,WSW,248,0.0,0.4,70,0.00,,,0.00,WUHU216HW,2013-06-22 03:47:00,
2013-06-21 20:52:00,65.2,55.5,29.45,WSW,248,0.0,0.4,71,0.00,,,0.00,WUHU216HW,2013-06-22 03:52:00,
2013-06-21 20:57:00,65.2,55.5,29.45,WSW,248,0.0,0.0,71,0.00,,,0.00,WUHU216HW,2013-06-22 03:57:00,
2013-06-21 21:01:00,65.0,55.8,29.45,WSW,248,0.0,0.0,72,0.00,,,0.00,WUHU216HW,2013-06-22 04:01:00,
2013-06-21 21:06:00,64.8,55.6,29.45,WSW,248,0.0,0.0,72,0.00,,,0.00,WUHU216HW,2013-06-22 04:06:00,
2013-06-21 21:11:00,64.8,55.6,29.45,WSW,248,0.0,0.0,72,0.00,,,0.00,WUHU216HW,2013-06-22 04:11:00,
2013-06-21 21:16:00,64.4,55.6,29.45,WSW,248,0.0,0.0,73,0.00,,,0.00,WUHU216HW,2013-06-22 04:16:00,
2013-06-21 21:21:00,64.4,55.6,29.45,WSW,248,0.0,0.0,73,0.00,,,0.00,WUHU216HW,2013-06-22 04:21:00,
2013-06-21 21:26:00,64.4,55.6,29.45,WSW,248,0.0,0.0,73,0.00,,,0.00,WUHU216HW,2013-06-22 04:26:00,
2013-06-21 21:31:00,64.4,56.0,29.45,WSW,248,0.0,0.0,74,0.00,,,0.00,WUHU216HW,2013-06-22 04:31:00,
2013-06-21 21:36:00,64.3,55.8,29.45,WSW,248,0.0,0.0,74,0.00,,,0.00,WUHU216HW,2013-06-22 04:36:00,
2013-06-21 21:41:00,64.3,55.8,29.45,WSW,248,0.0,0.0,74,0.00,,,0.00,WUHU216HW,2013-06-22 04:41:00,
2013-06-21 21:46:00,64.3,55.8,29.45,North,0,0.0,0.9,74,0.00,,,0.00,WUHU216HW,2013-06-22 04:46:00,
2013-06-21 21:51:00,64.1,55.6,29.45,North,0,0.0,0.9,74,0.00,,,0.00,WUHU216HW,2013-06-22 04:51:00,
2013-06-21 21:56:00,63.9,55.4,29.45,NNE,23,0.0,0.0,74,0.00,,,0.00,WUHU216HW,2013-06-22 04:56:00,
2013-06-21 22:01:00,63.7,55.3,29.45,NNE,23,0.0,0.0,74,0.00,,,0.00,WUHU216HW,2013-06-22 05:01:00,
2013-06-21 22:06:00,63.5,54.7,29.45,NNE,23,0.0,0.0,73,0.00,,,0.00,WUHU216HW,2013-06-22 05:06:00,
2013-06-21 22:11:00,63.5,54.7,29.45,NNE,23,0.0,0.0,73,0.00,,,0.00,WUHU216HW,2013-06-22 05:11:00,
2013-06-21 22:16:00,63.5,55.1,29.45,NNE,23,0.0,0.0,74,0.00,,,0.00,WUHU216HW,2013-06-22 05:16:00,
2013-06-21 22:21:00,63.4,54.9,29.45,WSW,248,0.0,0.0,74,0.00,,,0.00,WUHU216HW,2013-06-22 05:21:00,
2013-06-21 22:26:00,63.2,55.1,29.45,SW,225,0.0,0.0,75,0.00,,,0.00,WUHU216HW,2013-06-22 05:26:00,
2013-06-21 22:31:00,63.0,55.3,29.45,WSW,248,0.0,0.0,76,0.00,,,0.00,WUHU216HW,2013-06-22 05:31:00,
2013-06-21 22:36:00,63.0,55.3,29.45,WSW,248,0.0,0.0,76,0.00,,,0.00,WUHU216HW,2013-06-22 05:36:00,
2013-06-21 22:41:00,62.6,55.6,29.45,West,270,0.0,0.0,78,0.00,,,0.00,WUHU216HW,2013-06-22 05:41:00,
2013-06-21 22:46:00,62.6,56.0,29.45,West,270,0.0,0.0,79,0.00,,,0.00,WUHU216HW,2013-06-22 05:46:00,
2013-06-21 22:51:00,62.6,55.6,29.45,NNW,338,0.0,0.0,78,0.00,,,0.00,WUHU216HW,2013-06-22 05:51:00,
2013-06-21 22:56:00,62.6,54.9,29.45,NNW,338,0.0,0.0,76,0.00,,,0.00,WUHU216HW,2013-06-22 05:56:00,
2013-06-21 23:01:00,62.6,54.9,29.45,NNW,338,0.0,0.0,76,0.00,,,0.00,WUHU216HW,2013-06-22 06:01:00,
2013-06-21 23:06:00,62.6,54.5,29.45,NNW,338,0.0,0.0,75,0.00,,,0.00,WUHU216HW,2013-06-22 06:06:00,
2013-06-21 23:11:00,62.3,54.2,29.45,North,0,0.0,0.0,75,0.00,,,0.00,WUHU216HW,2013-06-22 06:11:00,
2013-06-21 23:16:00,62.3,54.2,29.45,North,0,0.0,0.0,75,0.00,,,0.00,WUHU216HW,2013-06-22 06:16:00,
2013-06-21 23:21:00,62.1,54.1,29.45,NNE,23,0.0,0.0,75,0.00,,,0.00,WUHU216HW,2013-06-22 06:21:00,
2013-06-21 23:26:00,62.1,53.7,29.45,NNE,23,0.0,0.0,74,0.00,,,0.00,WUHU216HW,2013-06-22 06:26:00,
2013-06-21 23:31:00,61.9,53.6,29.46,NNW,338,0.0,0.0,74,0.00,,,0.00,WUHU216HW,2013-06-22 06:31:00,
2013-06-21 23:36:00,61.7,53.4,29.45,NNW,338,0.0,0.0,74,0.00,,,0.00,WUHU216HW,2013-06-22 06:36:00,
2013-06-21 23:41:00,61.6,52.8,29.45,NNW,338,0.0,0.0,73,0.00,,,0.00,WUHU216HW,2013-06-22 06:41:00,
2013-06-21 23:46:00,61.2,52.6,29.45,NNW,338,0.0,0.0,73,0.00,,,0.00,WUHU216HW,2013-06-22 06:46:00,
2013-06-21 23:51:00,61.2,52.6,29.45,NNW,338,0.0,0.0,73,0.00,,,0.00,WUHU216HW,2013-06-22 06:51:00,
2013-06-21 23:56:00,61.0,52.4,29.45,NNW,338,0.0,0.0,73,0.00,,,0.00,WUHU216HW,2013-06-22 06:56:00,